Location: ??????????
(54.8537°N, 38.8755°E)
Time: 03:25:18
(UTC+00:00)

Vanguard 2 Rocket - Pass Details

Date: 14 September 2024
Orbit: 553 x 3298 km, 32.9° (Epoch: 10 October)

Event Time Altitude Azimuth Distance (km) Brightness Sun altitude
Rises 22:25:18 0° 204° (SSW) 4,655 - -30.6°
Reaches altitude 10° 22:29:09 10° 188° (S) 4,105 - -30.5°
Exits shadow 22:36:28 20° 148° (SSE) 4,060 9.8 -30.1°
Maximum altitude 22:36:45 20° 147° (SSE) 4,083 9.9 -30.1°
Drops below altitude 10° 22:46:50 10° 109° (ESE) 5,657 11.0 -29.5°
Sets 22:53:37 0° 96° (E) 7,033 11.7 -29.0°
